Weather History for KPNC - January, 2012

Change the Weather History Date:

Saturday, January 28, 2012

  Actual Average Record
Temperature  
Mean Temperature 36 °F -  
Max Temperature 48 °F 49 °F 79 °F (2015)
Min Temperature 23 °F 28 °F -2 °F (1948)
Degree Days  
Heating Degree Days 30    
Moisture  
Dew Point 19 °F    
Average Humidity 54    
Maximum Humidity 81    
Minimum Humidity 24    
Precipitation  
Precipitation 0.00 in - - ()
Sea Level Pressure  
Sea Level Pressure 30.41 in    
Wind  
Wind Speed 4 mph (WSW)    
Max Wind Speed 15 mph    
Max Gust Speed 21 mph    
Visibility 10 miles    
Events      
Averages and records for this station are not official NWS values.
T = Trace of Precipitation, MM = Missing Value Source: NWS Daily Summary

Daily Weather History Graph

Daily Weather History Graph

Search for Another Location

Airport or City:

Trip Planner

Search our weather history database for the weather conditions in past years. The results will help you decide how hot, cold, wet, or windy it might be!

Date:

Astronomy

Jan. 28, 2012 Rise Set
Actual Time 7:33 AM CST 5:49 PM CST
Civil Twilight 7:06 AM CST 6:16 PM CST
Nautical Twilight 6:35 AM CST 6:47 PM CST
Astronomical Twilight 6:04 AM CST 7:18 PM CST
Moon 10:06 AM CST (1/28) 11:27 PM CST (1/28)
Length of Visible Light 11h 10m
Length of Day
10h 15m
Waxing Crescent, 28% of the Moon is Illuminated
Jan 28
Waxing Crescent
Jan 30
First Quarter
Feb 7
Full
Feb 14
Last Quarter
Feb 21
New

Hourly Weather History & Observations

Time (CST) Temp. Windchill Dew Point Humidity Pressure Visibility Wind Dir Wind Speed Gust Speed Precip Events Conditions
12:53 AM 30.9 °F - 23.0 °F 72% 30.34 in 10.0 mi Calm Calm - N/A   Clear
1:53 AM 28.0 °F 22.8 °F 21.9 °F 78% 30.35 in 10.0 mi North 4.6 mph - N/A   Clear
2:53 AM 27.0 °F 20.5 °F 21.0 °F 78% 30.37 in 10.0 mi NNW 5.8 mph - N/A   Clear
3:53 AM 28.0 °F - 21.0 °F 75% 30.39 in 10.0 mi Calm Calm - N/A   Clear
4:53 AM 27.0 °F - 19.9 °F 75% 30.39 in 10.0 mi Calm Calm - N/A   Clear
5:53 AM 25.0 °F 19.3 °F 19.0 °F 78% 30.41 in 10.0 mi WSW 4.6 mph - N/A   Clear
6:53 AM 24.1 °F 19.7 °F 18.0 °F 77% 30.43 in 10.0 mi West 3.5 mph - N/A   Clear
7:53 AM 23.0 °F - 18.0 °F 81% 30.45 in 10.0 mi Calm Calm - N/A   Clear
8:53 AM 28.0 °F 21.7 °F 21.0 °F 75% 30.46 in 10.0 mi NNW 5.8 mph - N/A   Clear
9:53 AM 35.1 °F 31.0 °F 24.1 °F 64% 30.48 in 10.0 mi North 4.6 mph - N/A   Clear
10:53 AM 39.0 °F 34.8 °F 23.0 °F 53% 30.51 in 10.0 mi WNW 5.8 mph - N/A   Clear
11:53 AM 44.1 °F 39.0 °F 21.0 °F 40% 30.49 in 10.0 mi WSW 9.2 mph - N/A   Clear
12:53 PM 46.0 °F 39.6 °F 15.1 °F 29% 30.48 in 10.0 mi WSW 15.0 mph 19.6 mph N/A   Clear
1:53 PM 46.0 °F 40.6 °F 14.0 °F 28% 30.45 in 10.0 mi West 11.5 mph 20.7 mph N/A   Clear
2:53 PM 46.9 °F - 12.0 °F 24% 30.42 in 10.0 mi West 10.4 mph - N/A   Clear
3:53 PM 48.0 °F - 12.9 °F 24% 30.41 in 10.0 mi WSW 11.5 mph - N/A   Clear
4:53 PM 46.9 °F - 12.9 °F 25% 30.39 in 10.0 mi SW 9.2 mph - N/A   Clear
5:53 PM 42.1 °F 39.2 °F 17.1 °F 37% 30.39 in 10.0 mi SW 4.6 mph - N/A   Clear
6:53 PM 39.0 °F 36.8 °F 17.1 °F 41% 30.39 in 10.0 mi South 3.5 mph - N/A   Clear
7:53 PM 39.0 °F 34.8 °F 18.0 °F 43% 30.39 in 10.0 mi South 5.8 mph - N/A   Clear
8:53 PM 37.9 °F 33.5 °F 18.0 °F 45% 30.38 in 10.0 mi South 5.8 mph - N/A   Clear
9:53 PM 36.0 °F 32.1 °F 19.0 °F 50% 30.36 in 10.0 mi SSW 4.6 mph - N/A   Clear
10:53 PM 37.4 °F 32.1 °F 21.2 °F 52% 30.34 in 10.0 mi SSW 6.9 mph - N/A   Clear
11:53 PM 35.1 °F 31.0 °F 21.0 °F 57% 30.35 in 10.0 mi South 4.6 mph - N/A   Clear